AirNav  
 
 1036 users online  

04NC Wakemed Cary Hospital Heliport
Cary, North Carolina, USA

GOING TO CARY?


FAA INFORMATION EFFECTIVE 29 MARCH 2018

Location

FAA Identifier: 04NC
Lat/Long: 35-44-21.3500N / 078-46-58.0200W
35-44.355833N / 078-46.967000W
35.7392639 / -78.7827833
(estimated)
Elevation: 445 ft. / 136 m (estimated)
Variation: 07W (1990)
From city: 5 miles SE of CARY, NC
Time zone: UTC -4 (UTC -5 during Standard Time)
Zip code: 27511

Heliport Operations

Heliport use: Private use, MEDICAL USE.
Activation date: 11/1992
Control tower: no
ARTCC: WASHINGTON CENTER
FSS: RALEIGH FLIGHT SERVICE STATION
Attendance: CONTINUOUS
Wind indicator: yes
Segmented circle: no

Heliport Communications

WX ASOS at RDU (8 nm N): PHONE 919-840-0816
WX ASOS at IGX (18 nm NW): 134.575 (919-942-2538)
WX AWOS-3 at TTA (18 nm SW): 120.625 (919-708-5382)

Nearby radio navigation aids

VOR radial/distance  VOR name  Freq  Var
RDUr184/8.0RALEIGH/DURHAM VORTAC117.2004W

 
NDB name  Hdg/Dist  Freq  Var  ID
LEEVY202/11.735007WLE .-.. .
HARNETT352/19.141708WHQT .... --.- -
POPE022/31.933807WPOB .--. --- -...
PERSON163/32.722008WHUR .... ..- .-.
HUNTSBORO202/34.627109WHXO .... -..- ---
FORT BRAGG009/36.039307WFGP ..-. --. .--.

Heliport Services

Runway Information

Helipad H1

Dimensions: 91 x 35 ft. / 28 x 11 m
Surface: asphalt
Latitude: 35-44.355833N
Longitude: 078-46.967000W
Elevation: 445.0 ft.
Traffic pattern: leftleft

Heliport Ownership and Management from official FAA records

Ownership: Publicly-owned
Owner: WAKE MED HEALTH & HOSPITALS
1900 KILDAIRE FARM ROAD
CARY, NC 27512-6616
Phone 919-350-2397
Manager: DERAK DILLAHUNT
1900 KILDAIRE FARM ROAD
CARY, NC 27512-6616
Phone 919-350-2397

Additional Remarks

A52-H1 HIGH TENSION WIRES 200 FT SOUTH OF HELIPAD.

Instrument Procedures

There are no published instrument procedures at 04NC.

Some nearby airports with instrument procedures:

KRDU - Raleigh-Durham International Airport (8 nm N)
KIGX - Horace Williams Airport (18 nm NW)
KTTA - Raleigh Executive Jetport at Sanford-Lee County Airport (18 nm SW)
KHRJ - Harnett Regional Jetport Airport (22 nm S)
KJNX - Johnston Regional Airport (23 nm SE)
 
Loc | Ops | Rwys | IFR | FBO | Links
Com | Nav | Svcs | Stats | Notes

AirNav Hotels Sweepstakes
 
Area around 04NC (Wakemed Cary Hospital Heliport)
 
Road maps at: MapQuest Bing Google
 
Aerial photo
No photo
 
Sectional chart

 
Airport distance calculator
Flying to Wakemed Cary Hospital Heliport? Find the distance to fly.

From to 04NC

Sunrise and sunset
Times for 20-Apr-2018
 Local
(UTC-4)
 Zulu
(UTC)
Morning civil twilight06:1010:10
Sunrise06:3710:37
Sunset19:5123:51
Evening civil twilight20:1800:18

Current date and time
Zulu (UTC)  20-Apr-2018 23:06:13
Local (UTC-4)  20-Apr-2018 19:06:13
 
METAR
KRDU 
8nm N 
202251Z 02003KT 10SM FEW250 17/M03 A3028 RMK AO2 SLP252 T01721028
KIGX 
18nm NW 
202256Z AUTO VRB04KT 10SM CLR 17/M04 A3028 RMK AO2 SLP251 T01721044
KTTA 
18nm SW 
202255Z AUTO 29004KT 10SM CLR 17/M04 A3027 RMK AO2 T01741045
TAF
KRDU 
8nm N 
201722Z 2018/2118 34008KT P6SM SKC FM210000 00000KT P6SM SKC FM211500 06006KT P6SM SKC
NOTAMs
Click for the latest NOTAMs
NOTAMs are issued by the DoD/FAA and will open in a separate window not controlled by AirNav.

 

 
 

Would you like to see your business listed on this page?

 If your business provides an interesting product or service to pilots, flight crews, aircraft, or users of the Wakemed Cary Hospital Heliport, you should consider listing it here.  To start the listing process, click on the button below
 
Add a business
 

Other Pages about Wakemed Cary Hospital Heliport

Update a link
 
Copyright © AirNav, LLC. All rights reserved. Privacy Policy  Contact